Alpena, MI

10:14 AM EST on December 17, 2017 (GMT -0500)
Alpena County Regional

Weather History for KAPN - June, 2012

Change the Weather History Date:

Saturday, June 16, 2012

  Actual Average Record
Temperature  
Mean Temperature 70 °F 62 °F  
Max Temperature 85 °F 75 °F 96 °F (1994)
Min Temperature 55 °F 50 °F 31 °F (1942)
Degree Days  
Heating Degree Days 0 4  
Month to date heating degree days 79 100  
Since 1 June heating degree days 79 100  
Since 1 July heating degree days 6754 8057  
Cooling Degree Days 5 2  
Month to date cooling degree days 41 22  
Year to date cooling degree days 67 35  
Since 1 June cooling degree days 41 22  
Growing Degree Days 20 (Base 50)    
Moisture  
Dew Point 60 °F    
Average Humidity 71    
Maximum Humidity 93    
Minimum Humidity 49    
Precipitation  
Precipitation 0.01 in 0.08 in 0.88 in (2010)
Month to date precipitation 2.25 1.36  
Year to date precipitation 11.11 11.26  
Sea Level Pressure  
Sea Level Pressure 30.06 in    
Wind  
Wind Speed 7 mph (SE)    
Max Wind Speed 21 mph    
Max Gust Speed 26 mph    
Visibility 10 miles    
Events      
T = Trace of Precipitation, MM = Missing Value Source: NWS Daily Summary

Daily Weather History Graph

Daily Weather History Graph

Search for Another Location

Airport or City:

Trip Planner

Search our weather history database for the weather conditions in past years. The results will help you decide how hot, cold, wet, or windy it might be!

Date:

Astronomy

Jun. 16, 2012 Rise Set
Actual Time 5:46 AM EDT 9:23 PM EDT
Civil Twilight 5:09 AM EDT 10:01 PM EDT
Nautical Twilight 4:19 AM EDT 10:51 PM EDT
Astronomical Twilight 3:13 AM EDT 11:57 PM EDT
Moon 3:39 AM EDT (6/16) 6:54 PM EDT (6/16)
Length of Visible Light 16h 52m
Length of Day
15h 37m
Waning Crescent, 8% of the Moon is Illuminated
Jun 16
Waning Crescent
Jun 19
New
Jun 26
First Quarter
Jul 3
Full
Jul 10
Last Quarter

Hourly Weather History & Observations

Time (EDT) Temp. Heat Index Dew Point Humidity Pressure Visibility Wind Dir Wind Speed Gust Speed Precip Events Conditions
12:54 AM 60.1 °F - 55.9 °F 86% 30.13 in 10.0 mi SSE 3.5 mph - N/A   Clear
1:54 AM 57.9 °F - 55.0 °F 90% 30.13 in 10.0 mi Calm Calm - N/A   Clear
2:54 AM 57.9 °F - 54.0 °F 87% 30.14 in 10.0 mi Calm Calm - N/A   Clear
3:54 AM 55.9 °F - 53.1 °F 90% 30.13 in 10.0 mi Calm Calm - N/A   Clear
4:54 AM 57.0 °F - 53.1 °F 87% 30.14 in 10.0 mi South 3.5 mph - N/A   Partly Cloudy
5:54 AM 55.9 °F - 53.1 °F 90% 30.15 in 10.0 mi Calm Calm - N/A   Partly Cloudy
6:54 AM 57.9 °F - 55.0 °F 90% 30.15 in 10.0 mi Calm Calm - N/A   Partly Cloudy
7:54 AM 66.0 °F - 59.0 °F 78% 30.16 in 10.0 mi SE 3.5 mph - N/A   Partly Cloudy
8:54 AM 71.1 °F - 61.0 °F 70% 30.15 in 10.0 mi South 3.5 mph - N/A   Clear
9:54 AM 77.0 °F - 62.1 °F 60% 30.13 in 10.0 mi Variable 5.8 mph - N/A   Clear
10:54 AM 81.0 °F 81.3 °F 59.0 °F 47% 30.12 in 10.0 mi South 8.1 mph - N/A   Clear
11:54 AM 78.1 °F - 64.0 °F 62% 30.10 in 10.0 mi ESE 9.2 mph - N/A   Clear
12:54 PM 77.0 °F - 63.0 °F 62% 30.10 in 10.0 mi ESE 8.1 mph - N/A   Clear
1:54 PM 79.0 °F - 63.0 °F 58% 30.09 in 10.0 mi ESE 9.2 mph - N/A   Clear
2:54 PM 81.0 °F 82.5 °F 64.0 °F 56% 30.06 in 10.0 mi ESE 10.4 mph - N/A   Clear
3:54 PM 82.9 °F 84.6 °F 64.9 °F 54% 30.05 in 10.0 mi ESE 9.2 mph - N/A   Clear
4:54 PM 82.0 °F 83.8 °F 64.9 °F 56% 30.02 in 10.0 mi SE 10.4 mph - N/A   Clear
5:54 PM 80.1 °F 81.9 °F 64.9 °F 60% 29.99 in 10.0 mi SE 10.4 mph - N/A   Clear
6:54 PM 73.9 °F - 64.0 °F 71% 29.97 in 10.0 mi ESE 6.9 mph - N/A   Clear
7:54 PM 73.0 °F - 63.0 °F 71% 29.96 in 10.0 mi ESE 8.1 mph - N/A   Clear
8:54 PM 73.0 °F - 63.0 °F 71% 29.94 in 10.0 mi SE 8.1 mph - N/A   Partly Cloudy
9:54 PM 73.9 °F - 57.9 °F 57% 29.91 in 10.0 mi SSE 10.4 mph - 0.00 in   Clear
10:54 PM 73.9 °F - 57.0 °F 55% 29.91 in 10.0 mi South 15.0 mph - N/A   Clear
11:54 PM 72.0 °F - 59.0 °F 64% 29.88 in 10.0 mi SSE 11.5 mph - 0.01 in   Overcast